Regional Weather Roundup
Issued by NWS Albany, NY

Home | Current Version | Previous Version | Text Only | Print | Product List | Glossary On
Versions: 1 2 3 4 5 6 7 8 9 10 11 12 13 14 15 16 17 18 19 20 21 22 23 24 25 26 27
000
ASUS41 KALY 261510
RWRALY

NEW YORK STATE HOURLY WEATHER ROUNDUP
NATIONAL WEATHER SERVICE ALBANY NY
1100 AM EDT MON JUN 26 2017

NOTE: "FAIR" INDICATES FEW OR NO CLOUDS BELOW 12,000 FEET WITH NO
SIGNIFICANT WEATHER AND/OR NO OBSTRUCTIONS TO VISIBILITY.

NYZ032-033-038>043-046>054-057>066-NYZ062>081-082-084-261600-
EAST


CITY           SKY/WX    TMP DP  RH WIND       PRES   REMARKS
ALBANY         PTSUNNY   69  53  56 W13       30.00F
GLENS FALLS    PTSUNNY   67  51  56 SW8       29.98F
POUGHKEEPSIE   NOT AVBL
NEWBURGH       MOSUNNY   72  55  56 W9        30.05S
ISLIP          MOSUNNY   75  50  41 W14       30.03S
NEW YORK CITY  MOSUNNY   75  51  43 NW12      30.03S
CENTRAL PARK   SUNNY     73  49  42 VRB3      30.06F
$$

NYZ005>009-017-018-044>046-055-056-261600-
CENTRAL


CITY           SKY/WX    TMP DP  RH WIND       PRES   REMARKS
FULTON         MOSUNNY   68  56  65 VRB7      29.99F
SYRACUSE       MOSUNNY   67  53  61 W12       29.98F
ROME           CLOUDY    65  56  72 N3        30.00F
ELMIRA         PTSUNNY   68  54  60 W7        30.02F
BINGHAMTON     MOSUNNY   64  50  59 NW10      30.04S
$$

NYZ026>034-041>043-087-261600-
NORTH


CITY           SKY/WX    TMP DP  RH WIND       PRES   REMARKS
WATERTOWN      CLOUDY    64  55  72 SW8       29.99S
FORT DRUM      NOT AVBL
OGDENSBURG     FAIR      67  54  63 CALM      29.99S
MASSENA        MOSUNNY   65  54  67 W3        30.00R
SARANAC LAKE   CLOUDY    60  46  59 W5        29.99R
PLATTSBURGH    NOT AVBL
$$

NYZ001>004-010>016-019>021-085-261600-
WEST


CITY           SKY/WX    TMP DP  RH WIND       PRES   REMARKS
NIAGARA FALLS  MOSUNNY   70  52  52 SW12      29.99F
BUFFALO        MOSUNNY   65  52  62 SW13G20   29.99F
DUNKIRK        LGT RAIN  64  56  75 W9        30.02F
JAMESTOWN      CLOUDY    63  46  55 W9G17     30.04F
WELLSVILLE     MOSUNNY   65  49  56 W10       30.06F
ROCHESTER      PTSUNNY   68  53  58 W13       29.99F
PENN YAN       SUNNY     69  48  47 W13       30.01F
$$

             KEY
       WCI = WIND CHILL INDEX
       VSB = VISIBILITY
       HX  = HEAT INDEX
$$




USA.gov is the U.S. government's official web portal to all federal, state and local government web resources and services.